Regional Weather Roundup
Issued by NWS State College, PA

Home | Current Version | Previous Version | Graphics & Text | Print | Product List | Glossary Off
Versions: 1 2 3 4 5 6 7 8 9 10 11 12 13 14 15 16 17 18 19 20 21 22 23 24 25 26 27 28 29 30 31 32 33 34 35 36 37 38 39 40 41 42 43 44 45 46 47 48 49 50

000
ASUS41 KCTP 311103
RWRCTP

REGIONAL WEATHER ROUNDUP
NATIONAL WEATHER SERVICE STATE COLLEGE PA
600 AM EST SAT JAN 31 2015

Note: "fair" indicates few or no clouds below 12,000 feet with no
significant weather and/or obstructions to visibility.

* = STATION THAT DOES NOT REPORT PRECIPITATION /E.G. RAIN...SNOW...ETC/
    THUNDER OR FOG.

PAZ002>004-007>009-013>016-020>023-029>032-311200-
WESTERN PENNSYLVANIA

CITY           SKY/WX    TMP DP  RH WIND       PRES   REMARKS
ERIE           CLOUDY    10   3  73 SW7       30.34S WCI  -1
MEADVILLE      CLOUDY     6   2  83 SW5       30.28S WCI  -3
FRANKLIN*      CLOUDY     3   0  85 SW3       30.28S
NEW CASTLE     CLOUDY     5   1  83 CALM      30.35S
BEAVER COUNTY  NOT AVBL
BUTLER*        CLOUDY     3   1  92 CALM      30.33S
PITTSBURGH INT CLOUDY     7   3  84 CALM      30.34R
PITTSBURGH     CLOUDY     9   1  70 W6        30.33R WCI  -1
INDIANA*       PTCLDY     7   3  85 W7        30.33R WCI  -5
LATROBE        CLEAR      5   1  85 SW7       30.36R WCI  -7
WASHINGTON CO* PTCLDY     0  -6  78 CALM      30.35R
$$

PAZ004>006-010>012-017>019-024>028-033>037-041-042-045-046-049>053-311200-
CENTRAL PENNSYLVANIA

CITY           SKY/WX    TMP DP  RH WIND       PRES   REMARKS
BRADFORD       CLOUDY     7   1  76 W7        30.16S WCI  -5
DUBOIS         CLOUDY     9   4  80 W7        30.21S WCI  -2
CLEARFIELD     CLOUDY    10   2  69 NW8       30.24R WCI  -2
JOHNSTOWN      FLURRIES   4   0  83 W10       30.17R WCI -11
ALTOONA        PTCLDY    18   1  47 NW15G22   30.23S WCI   4
STATE COLLEGE  CLOUDY     9   0  66 NW14      30.25S WCI  -8
WILLIAMSPORT   CLEAR      7  -4  60 W13       30.28S WCI  -9
SELINSGROVE    CLEAR     10  -2  58 NW14G23   30.28S WCI  -6
FT INDIANTOWN  CLEAR     11  -5  47 W10       30.23S WCI  -2
CAPITAL CITY   CLEAR     13  -1  54 NW15G21   30.26S WCI  -3
HARRISBURG     CLEAR     13  -1  54 NW15G25   30.26S WCI  -3
YORK           CLEAR      8  -3  61 CALM      30.24S
$$

PAZ038>040-043-044-047-048-054-055-060>062-067>071-311200-
EASTERN PENNSYLVANIA

CITY           SKY/WX    TMP DP  RH WIND       PRES   REMARKS
SCRANTON       CLOUDY     7  -4  60 NW8G20    30.18S WCI  -6
MOUNT POCONO   CLOUDY     3  -5  69 NW23G33   29.97S BLWGSNOWWCI -19
ALLENTOWN      CLEAR     11  -4  51 NW16G23   30.17S WCI  -6
QUAKERTOWN*    SUNNY     10  -2  56 NW12G18   30.15R WCI  -4
READING        CLEAR     11  -3  53 NW25      30.20S WCI -10
LANCASTER      CLEAR     11  -5  48 W8        30.22F WCI  -1
COATESVILLE    SUNNY     12   0  57 NW15G31   30.16S WCI  -4
POTTSTOWN      CLEAR     11  -3  53 NW7G20    30.19S WCI   0
BLUE BELL      CLEAR     14   0  52 NW6       30.16R WCI   5
DOYLESTOWN     CLEAR     10  -3  55 NW12G24   30.14R WCI  -5
WILLOW GROVE   NOT AVBL
NORTH PHILA    CLEAR     15  -3  44 NW14G24   30.19S WCI   0
PHILADELPHIA   CLEAR     15  -3  44 NW20G26   30.21S WCI  -2
$$


USA.gov is the U.S. government's official web portal to all federal, state and local government web resources and services.